Starlink 11558

operational
NORAD ID: 63055 Int'l Des: 2025-035 Owner: SPXS Country: US Constellation: starlink
LEOCIRCULAR

关于 Starlink 11558

正在加载描述...

实时位置

正在加载3D地球...

即将过境

高度历史

Altitude vs Time

uPlot chart will show altitude changes over time

两行轨道根数

1 63055U 25035D 26033.89622058 .00229496 00000-0 17384-2 0 9995
2 63055 43.0012 224.6311 0002893 289.0694 70.9860 15.70902009 55643
Epoch: Feb 2, 2026 • Age: 19 hours

当前状态

高度 355.6 km
速度 7.70 km/s
星下点 13.48°N, 3.74°E
发射日期 Feb 21, 2025
运行时间 0.9 years
类型 internet

技术详情

分类 Payload
质量 960.00 kg
干质量 910.00 kg
总质量 960.00 kg
长度 0.30 m
直径 4.10 m
跨度 29.00 m
形状 Box + pan
制造商 SPXS
平台类型 Starlink V2MD
阶段状态 In Orbit
所有者/国家 SPXS/US

大型星座

Loading constellations...